Weather History for LGRX - October, 2011

Change the Weather History Date:

Sunday, October 23, 2011

  Actual Average Record
Temperature  
Mean Temperature 63 °F -  
Max Temperature 69 °F 66 °F 78 °F (2003)
Min Temperature 57 °F 51 °F 48 °F (2000)
Degree Days  
Heating Degree Days 2    
Growing Degree Days 13 (Base 50)    
Moisture  
Dew Point 58 °F    
Average Humidity 79    
Maximum Humidity 100    
Minimum Humidity 60    
Precipitation  
Precipitation 0.00 in - - ()
Sea Level Pressure  
Sea Level Pressure 30.05 in    
Wind  
Wind Speed 7 mph ()    
Max Wind Speed 14 mph    
Max Gust Speed -    
Visibility 5.8 miles    
Events Rain    
Averages and records for this station are not official NWS values.
T = Trace of Precipitation, MM = Missing Value Source: Averaged Metar Reports

Daily Weather History Graph

Daily Weather History Graph

Search for Another Location

Airport or City:

Trip Planner

Search our weather history database for the weather conditions in past years. The results will help you decide how hot, cold, wet, or windy it might be!

Date:

Astronomy

Oct. 23, 2011 Rise Set
Actual Time 7:50 AM EEST 6:46 PM EEST
Civil Twilight 7:23 AM EEST 7:13 PM EEST
Nautical Twilight 6:52 AM EEST 7:44 PM EEST
Astronomical Twilight 6:22 AM EEST 8:14 PM EEST
Moon 3:39 AM EEST (10/23) 4:24 PM EEST (10/23)
Length of Visible Light 11h 49m
Length of Day
10h 56m
Waning Crescent, 17% of the Moon is Illuminated
Oct 23
Waning Crescent
Oct 26
New
Nov 2
First Quarter
Nov 10
Full
Nov 18
Last Quarter

Hourly Weather History & Observations

Time (EEST) Temp. Dew Point Humidity Pressure Visibility Wind Dir Wind Speed Gust Speed Precip Events Conditions
12:50 AM 57.2 °F 55.4 °F 94% 30.09 in - Variable 3.5 mph - N/A   Clear
1:50 AM 57.2 °F 57.2 °F 100% 30.09 in - Variable 3.5 mph - N/A   Clear
2:50 AM 57.2 °F 55.4 °F 94% 30.09 in - Calm Calm - N/A   Clear
3:50 AM 60.8 °F 57.2 °F 88% 30.06 in - NE 11.5 mph - N/A   Clear
4:50 AM 62.6 °F 57.2 °F 82% 30.06 in - NE 11.5 mph - N/A   Clear
5:50 AM 64.4 °F 55.4 °F 73% 30.04 in - NE 11.5 mph - N/A   Clear
6:20 AM 62.6 °F 57.2 °F 82% 30.04 in - NE 13.8 mph - N/A   Clear
6:50 AM 62.6 °F 57.2 °F 82% 30.04 in - NE 11.5 mph - N/A   Clear
7:20 AM 62.6 °F 57.2 °F 82% 30.04 in - NE 13.8 mph - N/A   Clear
7:50 AM 60.8 °F 57.2 °F 88% 30.04 in 6.2 mi ENE 6.9 mph - N/A   Scattered Clouds
8:20 AM 62.6 °F 57.2 °F 82% 30.04 in - ENE 6.9 mph - N/A   Clear
8:50 AM 59.0 °F 55.4 °F 88% 30.06 in - ENE 4.6 mph - N/A   Clear
9:20 AM 62.6 °F 53.6 °F 72% 30.06 in - NE 8.1 mph - N/A   Clear
9:50 AM 66.2 °F 51.8 °F 60% 30.06 in - ENE 9.2 mph - N/A   Clear
10:20 AM 68.0 °F 53.6 °F 60% 30.06 in - NE 9.2 mph - N/A   Clear
10:50 AM 68.0 °F 57.2 °F 68% 30.06 in - ENE 9.2 mph - N/A   Clear
11:20 AM 68.0 °F 57.2 °F 68% 30.06 in - ENE 9.2 mph - N/A   Clear
11:50 AM 69.8 °F 59.0 °F 68% 30.06 in 6.2 mi ENE 8.1 mph - N/A   Mostly Cloudy
12:20 PM 69.8 °F 59.0 °F 68% 30.06 in 6.2 mi NE 11.5 mph - N/A   Mostly Cloudy
12:50 PM 69.8 °F 59.0 °F 68% 30.06 in 6.2 mi NE 11.5 mph - N/A   Mostly Cloudy
1:20 PM 69.8 °F 59.0 °F 68% 30.06 in 6.2 mi NE 11.5 mph - N/A   Mostly Cloudy
1:50 PM 69.8 °F 57.2 °F 64% 30.06 in 6.2 mi NE 11.5 mph - N/A   Mostly Cloudy
2:20 PM 69.8 °F 57.2 °F 64% 30.04 in 6.2 mi NE 13.8 mph - N/A   Mostly Cloudy
2:50 PM 69.8 °F 59.0 °F 68% 30.04 in 6.2 mi NE 11.5 mph - N/A   Mostly Cloudy
3:20 PM 69.8 °F 59.0 °F 68% 30.04 in 6.2 mi NE 13.8 mph - N/A   Mostly Cloudy
3:50 PM 69.8 °F 57.2 °F 64% 30.04 in 6.2 mi NE 11.5 mph - N/A   Mostly Cloudy
4:20 PM 69.8 °F 59.0 °F 68% 30.04 in 6.2 mi NE 11.5 mph - N/A   Overcast
4:50 PM 68.0 °F 57.2 °F 68% 30.04 in 6.2 mi NE 11.5 mph - N/A   Overcast
5:20 PM 68.0 °F 59.0 °F 73% 30.04 in 6.2 mi ENE 9.2 mph - N/A   Overcast
5:50 PM 68.0 °F 57.2 °F 68% 30.04 in 6.2 mi East 8.1 mph - N/A   Overcast
6:20 PM 64.4 °F 60.8 °F 88% 30.04 in 6.2 mi Variable 3.5 mph - N/A   Overcast
6:50 PM 62.6 °F 60.8 °F 94% 30.04 in 5.0 mi Variable 3.5 mph - N/A Rain Light Rain
7:20 PM 62.6 °F 60.8 °F 94% 30.04 in 5.0 mi Variable 3.5 mph - N/A Rain Light Rain
7:50 PM 62.6 °F 60.8 °F 94% 30.04 in 4.3 mi Calm Calm - N/A Rain Light Rain
8:20 PM 60.8 °F 60.8 °F 100% 30.04 in 4.3 mi Calm Calm - N/A Rain Light Rain
8:50 PM 60.8 °F 59.0 °F 94% 30.04 in 4.3 mi NE 5.8 mph - N/A Rain Light Rain
9:50 PM 62.6 °F 59.0 °F 88% 30.04 in 6.2 mi Variable 3.5 mph - N/A   Overcast
10:50 PM 62.6 °F 59.0 °F 88% 30.04 in 6.2 mi Variable 3.5 mph - N/A   Overcast
11:50 PM 62.6 °F 59.0 °F 88% 30.01 in 6.2 mi NE 11.5 mph - N/A   Overcast